QPF
0.13 0.13 0.12 0.13 0.14 0.13 0.10 0.09 0.12 0.12 0.09 0.07 0.05 0.05 0.04 0.04 0.04 0.04 0.03 0.03 0.03 0.03 0.03 0.02 0.01 0.01 0.01 0.00 0.00 0.00 0.00 0.00 0.01 0.00 0.00 0.00 0.00 0.00 0.00 0.00 0.00 0.00 0.00
0.10 0.11 0.12 0.12 0.14 0.13 0.11 0.10 0.11 0.10 0.08 0.08 0.06 0.05 0.04 0.04 0.05 0.05 0.04 0.04 0.04 0.04 0.04 0.03 0.02 0.02 0.02 0.01 0.01 0.00 0.00 0.01 0.01 0.01 0.00 0.00 0.01 0.01 0.01 0.00 0.00 0.00 0.00
0.08 0.08 0.08 0.10 0.10 0.11 0.12 0.11 0.10 0.10 0.08 0.08 0.08 0.07 0.06 0.05 0.05 0.04 0.04 0.04 0.04 0.04 0.04 0.04 0.04 0.04 0.04 0.03 0.02 0.02 0.01 0.01 0.02 0.01 0.01 0.01 0.01 0.01 0.02 0.02 0.01 0.01 0.00
0.07 0.07 0.07 0.08 0.09 0.09 0.09 0.10 0.10 0.10 0.09 0.09 0.10 0.09 0.09 0.08 0.08 0.06 0.05 0.05 0.04 0.04 0.04 0.05 0.05 0.05 0.06 0.06 0.05 0.04 0.03 0.03 0.03 0.03 0.02 0.02 0.03 0.03 0.04 0.03 0.03 0.02 0.01
0.06 0.06 0.06 0.07 0.07 0.07 0.07 0.08 0.10 0.09 0.09 0.10 0.10 0.09 0.10 0.09 0.08 0.07 0.05 0.04 0.04 0.04 0.04 0.05 0.05 0.06 0.06 0.06 0.05 0.05 0.05 0.04 0.04 0.04 0.04 0.05 0.05 0.06 0.06 0.04 0.04 0.03 0.02
0.06 0.06 0.07 0.09 0.09 0.08 0.07 0.08 0.09 0.08 0.09 0.11 0.10 0.09 0.09 0.07 0.08 0.08 0.07 0.06 0.05 0.05 0.05 0.05 0.05 0.05 0.04 0.04 0.04 0.03 0.03 0.04 0.04 0.05 0.05 0.06 0.06 0.07 0.07 0.06 0.06 0.06 0.04
0.08 0.09 0.11 0.11 0.12 0.11 0.08 0.10 0.10 0.10 0.11 0.10 0.08 0.07 0.06 0.07 0.09 0.08 0.06 0.05 0.05 0.04 0.05 0.05 0.04 0.03 0.04 0.04 0.04 0.05 0.04 0.04 0.04 0.04 0.04 0.04 0.06 0.06 0.07 0.06 0.07 0.06 0.05
0.07 0.07 0.09 0.09 0.10 0.12 0.12 0.11 0.13 0.14 0.13 0.11 0.09 0.07 0.07 0.07 0.09 0.07 0.05 0.03 0.03 0.04 0.05 0.06 0.06 0.05 0.05 0.06 0.07 0.06 0.06 0.06 0.05 0.05 0.05 0.04 0.05 0.05 0.05 0.04 0.05 0.05 0.03
0.06 0.07 0.07 0.07 0.09 0.11 0.12 0.13 0.14 0.14 0.13 0.12 0.12 0.10 0.09 0.08 0.07 0.05 0.04 0.03 0.04 0.05 0.05 0.06 0.07 0.07 0.08 0.09 0.08 0.07 0.08 0.07 0.04 0.04 0.04 0.03 0.03 0.02 0.02 0.02 0.03 0.04 0.03
0.07 0.07 0.07 0.06 0.07 0.08 0.09 0.10 0.11 0.13 0.13 0.12 0.11 0.10 0.10 0.10 0.09 0.07 0.05 0.04 0.05 0.05 0.06 0.05 0.05 0.06 0.08 0.09 0.08 0.09 0.08 0.08 0.07 0.06 0.05 0.04 0.03 0.02 0.02 0.02 0.03 0.04 0.04
0.06 0.05 0.05 0.06 0.06 0.07 0.08 0.08 0.09 0.10 0.11 0.11 0.11 0.10 0.10 0.09 0.10 0.09 0.07 0.05 0.05 0.06 0.06 0.07 0.08 0.08 0.07 0.07 0.06 0.07 0.08 0.09 0.09 0.09 0.08 0.06 0.05 0.04 0.03 0.03 0.03 0.05 0.05
0.07 0.07 0.08 0.08 0.08 0.08 0.08 0.08 0.08 0.08 0.10 0.10 0.11 0.12 0.12 0.13 0.12 0.09 0.07 0.05 0.05 0.05 0.06 0.06 0.06 0.06 0.05 0.05 0.06 0.07 0.08 0.07 0.07 0.07 0.07 0.06 0.06 0.05 0.05 0.04 0.04 0.04 0.05
0.10 0.11 0.11 0.12 0.14 0.18 0.22 0.23 0.20 0.15 0.13 0.12 0.12 0.11 0.11 0.11 0.09 0.06 0.04 0.03 0.02 0.02 0.03 0.04 0.04 0.04 0.04 0.04 0.05 0.05 0.05 0.04 0.03 0.04 0.04 0.04 0.04 0.04 0.04 0.05 0.05 0.05 0.05
0.13 0.12 0.12 0.12 0.14 0.16 0.18 0.16 0.14 0.12 0.10 0.09 0.08 0.07 0.08 0.08 0.07 0.05 0.03 0.03 0.02 0.02 0.01 0.02 0.02 0.02 0.02 0.02 0.02 0.02 0.03 0.03 0.04 0.04 0.04 0.04 0.04 0.05 0.05 0.06 0.07 0.07 0.06
0.11 0.09 0.07 0.07 0.07 0.07 0.07 0.07 0.08 0.08 0.07 0.07 0.06 0.05 0.06 0.06 0.05 0.04 0.02 0.02 0.02 0.02 0.02 0.01 0.01 0.02 0.02 0.02 0.02 0.02 0.03 0.04 0.04 0.04 0.04 0.04 0.04 0.04 0.04 0.05 0.06 0.06 0.07
0.08 0.07 0.07 0.06 0.05 0.05 0.05 0.03 0.03 0.03 0.04 0.04 0.04 0.03 0.03 0.03 0.03 0.03 0.02 0.02 0.02 0.02 0.02 0.01 0.02 0.03 0.03 0.03 0.02 0.02 0.02 0.02 0.03 0.03 0.03 0.03 0.03 0.04 0.04 0.04 0.04 0.05 0.05
0.06 0.05 0.05 0.05 0.05 0.04 0.04 0.04 0.04 0.03 0.03 0.02 0.02 0.02 0.02 0.02 0.02 0.02 0.02 0.02 0.02 0.03 0.02 0.01 0.02 0.02 0.02 0.02 0.02 0.02 0.02 0.02 0.02 0.02 0.02 0.03 0.04 0.04 0.04 0.03 0.04 0.04 0.05
0.03 0.03 0.04 0.04 0.04 0.04 0.04 0.03 0.02 0.02 0.02 0.01 0.01 0.01 0.01 0.02 0.02 0.02 0.02 0.01 0.01 0.01 0.01 0.01 0.01 0.01 0.01 0.01 0.02 0.02 0.02 0.02 0.02 0.02 0.03 0.03 0.04 0.04 0.04 0.03 0.03 0.04 0.04
0.02 0.02 0.02 0.02 0.02 0.02 0.02 0.02 0.02 0.01 0.01 0.01 0.01 0.01 0.01 0.01 0.00 0.00 0.00 0.00 0.00 0.00 0.01 0.01 0.01 0.01 0.02 0.02 0.02 0.02 0.02 0.02 0.03 0.04 0.04 0.04 0.05 0.05 0.05 0.05 0.05 0.05 0.05
0.00 0.00 0.00 0.01 0.01 0.02 0.02 0.02 0.02 0.02 0.02 0.01 0.01 0.00 0.00 0.00 0.00 0.00 0.00 0.00 0.00 0.01 0.01 0.01 0.01 0.01 0.01 0.02 0.02 0.03 0.03 0.04 0.04 0.05 0.05 0.05 0.06 0.07 0.07 0.06 0.06 0.07 0.07
0.00 0.00 0.00 0.00 0.00 0.00 0.01 0.01 0.01 0.01 0.00 0.00 0.00 0.00 0.00 0.00 0.00 0.00 0.00 0.00 0.00 0.00 0.01 0.01 0.00 0.01 0.01 0.02 0.02 0.02 0.03 0.04 0.04 0.05 0.05 0.05 0.05 0.05 0.06 0.06 0.06 0.06 0.06
0.00 0.00 0.00 0.00 0.00 0.00 0.00 0.00 0.00 0.00 0.00 0.00 0.00 0.00 0.00 0.00 0.00 0.00 0.00 0.00 0.00 0.00 0.00 0.00 0.00 0.01 0.01 0.01 0.01 0.01 0.02 0.02 0.02 0.03 0.04 0.04 0.05 0.04 0.04 0.05 0.05 0.05 0.05
0.00 0.00 0.00 0.00 0.00 0.00 0.00 0.00 0.00 0.00 0.00 0.00 0.00 0.00 0.00 0.00 0.00 0.00 0.00 0.00 0.01 0.01 0.00 0.00 0.00 0.00 0.00 0.01 0.01 0.02 0.02 0.03 0.03 0.04 0.04 0.04 0.04 0.04 0.05 0.05 0.04 0.04 0.04
0.00 0.00 0.00 0.00 0.00 0.00 0.00 0.00 0.00 0.00 0.00 0.00 0.00 0.00 0.00 0.00 0.01 0.01 0.01 0.02 0.02 0.01 0.01 0.01 0.01 0.01 0.01 0.02 0.03 0.03 0.02 0.02 0.02 0.02 0.03 0.03 0.03 0.04 0.04 0.04 0.03 0.03 0.03
0.00 0.00 0.00 0.00 0.00 0.00 0.00 0.01 0.01 0.01 0.01 0.01 0.00 0.00 0.01 0.01 0.01 0.01 0.01 0.01 0.01 0.02 0.01 0.01 0.02 0.02 0.02 0.02 0.02 0.03 0.03 0.03 0.02 0.02 0.02 0.02 0.01 0.01 0.02 0.02 0.02 0.02 0.03
0.00 0.00 0.00 0.01 0.00 0.00 0.01 0.01 0.01 0.00 0.00 0.00 0.01 0.01 0.01 0.01 0.01 0.01 0.01 0.01 0.02 0.02 0.02 0.01 0.01 0.02 0.02 0.02 0.02 0.03 0.03 0.02 0.02 0.02 0.02 0.02 0.01 0.02 0.02 0.02 0.02 0.03 0.04
MSLP
1007.65 1008.09 1008.62 1009.21 1009.85 1010.49 1011.12 1011.70 1012.23 1012.71 1013.14 1013.53 1013.89 1014.23 1014.56 1014.87 1015.16 1015.43 1015.68 1015.91 1016.14 1016.35 1016.55 1016.75 1016.95 1017.15 1017.34 1017.52 1017.67 1017.80 1017.90 1017.96 1017.99 1017.99 1017.96 1017.92 1017.86 1017.81 1017.77 1017.74 1017.74 1017.76 1017.80
1007.91 1008.33 1008.83 1009.40 1010.02 1010.64 1011.25 1011.82 1012.33 1012.78 1013.18 1013.54 1013.86 1014.16 1014.45 1014.72 1014.99 1015.24 1015.48 1015.71 1015.92 1016.11 1016.30 1016.48 1016.65 1016.83 1017.01 1017.18 1017.35 1017.51 1017.65 1017.76 1017.84 1017.89 1017.89 1017.86 1017.81 1017.73 1017.65 1017.56 1017.49 1017.43 1017.38
1008.31 1008.74 1009.23 1009.78 1010.37 1010.95 1011.52 1012.05 1012.51 1012.92 1013.27 1013.57 1013.85 1014.10 1014.34 1014.58 1014.82 1015.04 1015.26 1015.47 1015.66 1015.83 1015.99 1016.15 1016.30 1016.45 1016.62 1016.79 1016.98 1017.16 1017.34 1017.50 1017.63 1017.72 1017.76 1017.75 1017.70 1017.62 1017.51 1017.39 1017.26 1017.14 1017.03
1008.68 1009.15 1009.65 1010.19 1010.75 1011.29 1011.81 1012.27 1012.68 1013.03 1013.32 1013.57 1013.79 1013.99 1014.19 1014.39 1014.59 1014.78 1014.97 1015.15 1015.31 1015.46 1015.59 1015.72 1015.85 1015.99 1016.14 1016.32 1016.52 1016.72 1016.93 1017.13 1017.30 1017.43 1017.50 1017.52 1017.49 1017.41 1017.30 1017.16 1017.01 1016.85 1016.70
1008.86 1009.38 1009.92 1010.46 1011.00 1011.50 1011.96 1012.37 1012.72 1013.00 1013.24 1013.44 1013.61 1013.77 1013.93 1014.09 1014.25 1014.41 1014.57 1014.71 1014.84 1014.96 1015.07 1015.17 1015.29 1015.41 1015.57 1015.75 1015.95 1016.18 1016.41 1016.63 1016.83 1016.98 1017.08 1017.12 1017.11 1017.05 1016.95 1016.82 1016.67 1016.51 1016.35
1008.75 1009.34 1009.91 1010.47 1010.99 1011.46 1011.88 1012.24 1012.53 1012.77 1012.97 1013.13 1013.26 1013.39 1013.51 1013.64 1013.77 1013.90 1014.02 1014.13 1014.24 1014.33 1014.42 1014.51 1014.61 1014.74 1014.89 1015.08 1015.30 1015.53 1015.77 1016.00 1016.21 1016.37 1016.48 1016.54 1016.55 1016.50 1016.43 1016.33 1016.21 1016.09 1015.95
1008.33 1008.98 1009.59 1010.16 1010.68 1011.13 1011.52 1011.84 1012.10 1012.31 1012.47 1012.61 1012.73 1012.84 1012.95 1013.05 1013.16 1013.26 1013.36 1013.45 1013.53 1013.61 1013.69 1013.77 1013.88 1014.01 1014.17 1014.36 1014.58 1014.81 1015.05 1015.27 1015.47 1015.63 1015.73 1015.79 1015.81 1015.79 1015.74 1015.69 1015.62 1015.55 1015.46
1007.69 1008.38 1009.02 1009.60 1010.11 1010.55 1010.91 1011.22 1011.46 1011.66 1011.82 1011.96 1012.08 1012.19 1012.29 1012.39 1012.49 1012.58 1012.66 1012.74 1012.80 1012.87 1012.95 1013.04 1013.15 1013.29 1013.45 1013.65 1013.86 1014.09 1014.31 1014.51 1014.67 1014.80 1014.89 1014.93 1014.95 1014.94 1014.93 1014.92 1014.91 1014.91 1014.89
1007.01 1007.70 1008.34 1008.92 1009.42 1009.85 1010.21 1010.50 1010.75 1010.95 1011.12 1011.28 1011.42 1011.54 1011.66 1011.77 1011.87 1011.96 1012.03 1012.10 1012.17 1012.23 1012.31 1012.40 1012.52 1012.66 1012.83 1013.02 1013.22 1013.42 1013.61 1013.77 1013.89 1013.98 1014.03 1014.05 1014.05 1014.05 1014.06 1014.09 1014.14 1014.21 1014.27
1006.46 1007.13 1007.75 1008.31 1008.80 1009.22 1009.57 1009.86 1010.11 1010.34 1010.53 1010.72 1010.88 1011.04 1011.18 1011.31 1011.42 1011.52 1011.60 1011.66 1011.73 1011.79 1011.87 1011.95 1012.07 1012.20 1012.36 1012.53 1012.70 1012.86 1013.00 1013.11 1013.19 1013.22 1013.23 1013.21 1013.19 1013.19 1013.22 1013.27 1013.37 1013.49 1013.62
1006.21 1006.84 1007.42 1007.95 1008.41 1008.81 1009.15 1009.44 1009.71 1009.95 1010.18 1010.39 1010.59 1010.78 1010.95 1011.11 1011.23 1011.34 1011.42 1011.49 1011.54 1011.60 1011.66 1011.74 1011.83 1011.94 1012.07 1012.20 1012.33 1012.44 1012.53 1012.58 1012.59 1012.58 1012.53 1012.48 1012.44 1012.42 1012.45 1012.52 1012.64 1012.80 1012.97
1006.36 1006.92 1007.44 1007.92 1008.34 1008.71 1009.03 1009.33 1009.60 1009.86 1010.11 1010.36 1010.59 1010.81 1011.01 1011.19 1011.33 1011.44 1011.52 1011.58 1011.63 1011.66 1011.70 1011.74 1011.79 1011.86 1011.93 1012.01 1012.08 1012.13 1012.16 1012.15 1012.11 1012.04 1011.96 1011.87 1011.80 1011.77 1011.79 1011.87 1011.99 1012.17 1012.36
1006.90 1007.37 1007.82 1008.23 1008.60 1008.93 1009.23 1009.51 1009.79 1010.06 1010.32 1010.59 1010.85 1011.09 1011.31 1011.50 1011.65 1011.77 1011.85 1011.89 1011.91 1011.91 1011.91 1011.90 1011.90 1011.90 1011.91 1011.92 1011.92 1011.90 1011.87 1011.80 1011.71 1011.60 1011.49 1011.38 1011.29 1011.24 1011.25 1011.31 1011.44 1011.60 1011.80
1007.73 1008.11 1008.47 1008.80 1009.10 1009.38 1009.65 1009.91 1010.18 1010.45 1010.73 1011.00 1011.27 1011.53 1011.76 1011.95 1012.11 1012.22 1012.28 1012.31 1012.30 1012.26 1012.20 1012.14 1012.07 1012.00 1011.93 1011.86 1011.78 1011.70 1011.60 1011.49 1011.36 1011.22 1011.08 1010.96 1010.86 1010.80 1010.80 1010.85 1010.96 1011.11 1011.29
1008.71 1008.98 1009.24 1009.49 1009.72 1009.95 1010.18 1010.41 1010.66 1010.91 1011.18 1011.46 1011.73 1011.98 1012.20 1012.40 1012.55 1012.65 1012.70 1012.70 1012.66 1012.58 1012.47 1012.35 1012.21 1012.07 1011.92 1011.78 1011.63 1011.49 1011.34 1011.18 1011.03 1010.87 1010.73 1010.60 1010.50 1010.44 1010.42 1010.46 1010.55 1010.67 1010.83
1009.68 1009.84 1010.00 1010.16 1010.32 1010.49 1010.67 1010.87 1011.09 1011.33 1011.58 1011.84 1012.09 1012.33 1012.55 1012.73 1012.87 1012.95 1012.99 1012.97 1012.91 1012.80 1012.65 1012.48 1012.28 1012.08 1011.87 1011.67 1011.46 1011.26 1011.07 1010.89 1010.72 1010.55 1010.41 1010.28 1010.19 1010.13 1010.11 1010.13 1010.20 1010.30 1010.42
1010.53 1010.58 1010.64 1010.71 1010.81 1010.92 1011.07 1011.23 1011.43 1011.64 1011.87 1012.10 1012.33 1012.55 1012.74 1012.90 1013.02 1013.10 1013.12 1013.10 1013.02 1012.89 1012.73 1012.52 1012.30 1012.05 1011.80 1011.55 1011.31 1011.07 1010.85 1010.65 1010.46 1010.30 1010.15 1010.03 1009.94 1009.88 1009.85 1009.87 1009.91 1009.99 1010.08
1011.21 1011.16 1011.14 1011.15 1011.19 1011.26 1011.37 1011.51 1011.68 1011.87 1012.07 1012.27 1012.47 1012.66 1012.82 1012.96 1013.06 1013.13 1013.15 1013.12 1013.04 1012.92 1012.75 1012.54 1012.31 1012.05 1011.78 1011.51 1011.24 1010.98 1010.74 1010.52 1010.32 1010.15 1010.00 1009.87 1009.78 1009.71 1009.67 1009.67 1009.70 1009.74 1009.81
1011.78 1011.66 1011.57 1011.53 1011.54 1011.59 1011.68 1011.80 1011.95 1012.11 1012.28 1012.45 1012.62 1012.76 1012.89 1013.00 1013.09 1013.14 1013.15 1013.13 1013.06 1012.95 1012.80 1012.62 1012.39 1012.14 1011.87 1011.60 1011.32 1011.05 1010.80 1010.56 1010.35 1010.15 1009.99 1009.85 1009.73 1009.65 1009.59 1009.56 1009.56 1009.58 1009.61
1012.32 1012.15 1012.03 1011.97 1011.97 1012.02 1012.11 1012.22 1012.36 1012.50 1012.64 1012.78 1012.90 1013.00 1013.09 1013.16 1013.22 1013.25 1013.27 1013.25 1013.20 1013.11 1012.99 1012.83 1012.63 1012.40 1012.15 1011.88 1011.60 1011.32 1011.05 1010.79 1010.55 1010.33 1010.14 1009.96 1009.82 1009.69 1009.60 1009.54 1009.50 1009.48 1009.47
1012.94 1012.76 1012.64 1012.59 1012.60 1012.66 1012.76 1012.88 1013.01 1013.13 1013.25 1013.34 1013.42 1013.48 1013.52 1013.55 1013.57 1013.58 1013.58 1013.57 1013.53 1013.46 1013.37 1013.23 1013.06 1012.86 1012.62 1012.36 1012.08 1011.79 1011.50 1011.21 1010.93 1010.67 1010.43 1010.20 1010.01 1009.84 1009.69 1009.58 1009.50 1009.43 1009.39
1013.73 1013.56 1013.47 1013.45 1013.49 1013.57 1013.69 1013.81 1013.94 1014.05 1014.13 1014.19 1014.22 1014.23 1014.22 1014.21 1014.19 1014.17 1014.15 1014.12 1014.08 1014.02 1013.94 1013.82 1013.67 1013.48 1013.25 1012.99 1012.70 1012.39 1012.07 1011.74 1011.42 1011.10 1010.80 1010.52 1010.27 1010.04 1009.84 1009.67 1009.53 1009.42 1009.33
1014.69 1014.57 1014.52 1014.54 1014.61 1014.72 1014.85 1014.98 1015.10 1015.19 1015.24 1015.27 1015.25 1015.22 1015.16 1015.10 1015.04 1014.98 1014.93 1014.87 1014.82 1014.75 1014.66 1014.54 1014.39 1014.19 1013.96 1013.68 1013.37 1013.03 1012.67 1012.30 1011.92 1011.55 1011.19 1010.85 1010.53 1010.25 1009.99 1009.77 1009.58 1009.42 1009.28
1015.79 1015.73 1015.72 1015.77 1015.87 1016.00 1016.13 1016.26 1016.36 1016.43 1016.45 1016.44 1016.39 1016.32 1016.22 1016.12 1016.02 1015.92 1015.83 1015.75 1015.66 1015.56 1015.44 1015.30 1015.12 1014.90 1014.64 1014.33 1013.99 1013.61 1013.21 1012.79 1012.37 1011.94 1011.53 1011.13 1010.76 1010.43 1010.12 1009.85 1009.62 1009.42 1009.25
1016.93 1016.91 1016.93 1017.01 1017.11 1017.23 1017.36 1017.47 1017.55 1017.59 1017.60 1017.56 1017.49 1017.39 1017.27 1017.14 1017.01 1016.88 1016.75 1016.63 1016.50 1016.36 1016.20 1016.01 1015.79 1015.53 1015.22 1014.87 1014.49 1014.07 1013.63 1013.17 1012.70 1012.23 1011.78 1011.34 1010.93 1010.55 1010.22 1009.92 1009.65 1009.43 1009.22
1018.00 1018.00 1018.04 1018.11 1018.20 1018.30 1018.39 1018.48 1018.54 1018.56 1018.55 1018.51 1018.43 1018.33 1018.20 1018.06 1017.92 1017.76 1017.61 1017.45 1017.27 1017.08 1016.87 1016.63 1016.35 1016.03 1015.67 1015.28 1014.85 1014.39 1013.91 1013.42 1012.92 1012.42 1011.94 1011.48 1011.05 1010.65 1010.29 1009.98 1009.70 1009.45 1009.24
Thickness
5749 5748 5747 5745 5746 5746 5746 5746 5747 5747 5747 5746 5746 5745 5744 5743 5742 5741 5741 5741 5739 5739 5739 5738 5736 5736 5736 5736 5736 5734 5731 5728 5720 5724 5729 5730 5728 5724 5721 5719 5717 5716 5714
5750 5748 5747 5746 5746 5745 5745 5746 5746 5746 5746 5745 5745 5744 5743 5742 5742 5740 5739 5740 5738 5737 5736 5735 5734 5733 5731 5730 5729 5729 5727 5725 5720 5716 5719 5721 5721 5720 5717 5715 5714 5713 5713
5752 5749 5747 5746 5745 5744 5744 5745 5746 5745 5744 5744 5744 5743 5742 5742 5741 5740 5739 5738 5737 5736 5735 5733 5731 5729 5726 5725 5723 5722 5722 5721 5718 5713 5712 5714 5715 5714 5711 5709 5709 5708 5708
5754 5751 5748 5747 5745 5744 5744 5745 5744 5744 5743 5742 5742 5742 5741 5740 5739 5738 5737 5736 5735 5734 5733 5731 5729 5726 5723 5721 5719 5717 5715 5713 5711 5708 5706 5706 5706 5708 5706 5701 5699 5700 5700
5754 5750 5748 5748 5747 5745 5744 5743 5743 5742 5742 5740 5739 5739 5738 5737 5736 5735 5734 5732 5731 5730 5729 5727 5726 5724 5721 5718 5715 5712 5709 5706 5703 5701 5699 5698 5698 5697 5695 5695 5692 5692 5693
5754 5750 5748 5747 5745 5743 5743 5742 5740 5739 5738 5737 5735 5734 5733 5733 5732 5731 5730 5728 5726 5723 5722 5721 5720 5718 5715 5712 5709 5706 5703 5699 5696 5693 5692 5690 5690 5690 5689 5687 5684 5681 5680
5753 5749 5747 5744 5742 5740 5740 5738 5736 5735 5734 5732 5731 5729 5728 5727 5726 5724 5723 5722 5720 5718 5716 5714 5712 5713 5709 5706 5702 5699 5696 5692 5688 5685 5683 5682 5682 5682 5679 5676 5674 5672 5671
5750 5747 5744 5742 5740 5738 5736 5734 5733 5731 5728 5727 5725 5724 5722 5720 5718 5717 5716 5715 5713 5711 5709 5707 5705 5702 5701 5698 5695 5692 5689 5687 5684 5679 5677 5676 5675 5673 5670 5667 5664 5663 5664
5746 5743 5742 5740 5736 5734 5731 5730 5728 5725 5723 5721 5719 5718 5715 5713 5711 5709 5708 5707 5704 5702 5700 5699 5697 5693 5691 5688 5685 5682 5680 5679 5677 5674 5671 5668 5665 5662 5659 5655 5652 5649 5649
5742 5740 5738 5736 5732 5729 5727 5725 5724 5721 5718 5715 5712 5710 5708 5705 5702 5700 5698 5698 5695 5693 5691 5689 5686 5683 5681 5677 5674 5672 5669 5668 5666 5664 5661 5659 5656 5653 5649 5645 5642 5637 5636
5737 5735 5733 5730 5727 5724 5721 5719 5717 5714 5710 5707 5704 5702 5700 5697 5693 5690 5688 5687 5685 5683 5680 5678 5675 5672 5669 5666 5663 5661 5659 5656 5654 5652 5650 5648 5646 5643 5641 5637 5634 5629 5625
5730 5727 5723 5721 5720 5717 5713 5710 5708 5705 5701 5697 5694 5692 5690 5687 5683 5680 5678 5675 5674 5672 5669 5666 5662 5659 5657 5655 5652 5650 5647 5643 5642 5640 5638 5636 5634 5632 5630 5627 5624 5621 5617
5719 5716 5713 5710 5708 5707 5703 5700 5698 5695 5692 5689 5686 5682 5679 5677 5673 5670 5667 5664 5661 5658 5656 5653 5650 5647 5645 5643 5641 5638 5634 5631 5629 5627 5625 5623 5621 5619 5617 5615 5613 5610 5607
5706 5704 5702 5699 5696 5694 5692 5690 5686 5683 5680 5679 5676 5672 5669 5665 5661 5659 5657 5654 5650 5647 5644 5641 5639 5637 5634 5632 5629 5626 5623 5620 5618 5615 5612 5611 5608 5606 5603 5600 5597 5595 5592
5693 5691 5689 5687 5683 5679 5676 5672 5672 5667 5667 5666 5664 5660 5656 5651 5645 5642 5642 5641 5638 5634 5631 5630 5630 5629 5626 5623 5619 5616 5613 5609 5604 5601 5598 5595 5593 5590 5588 5585 5582 5580 5576
5680 5678 5678 5676 5673 5670 5665 5660 5655 5654 5651 5651 5649 5646 5641 5637 5634 5632 5629 5627 5624 5620 5618 5620 5619 5617 5614 5611 5607 5603 5599 5596 5592 5588 5584 5581 5578 5576 5573 5571 5567 5564 5561
5667 5666 5667 5665 5663 5660 5657 5653 5647 5642 5639 5637 5636 5634 5630 5626 5624 5621 5618 5615 5612 5608 5606 5607 5605 5602 5599 5596 5592 5588 5584 5581 5577 5573 5569 5566 5563 5560 5557 5555 5552 5549 5547
5655 5654 5654 5653 5651 5650 5648 5646 5643 5638 5633 5629 5625 5622 5619 5616 5613 5610 5605 5602 5602 5599 5595 5593 5589 5586 5583 5579 5575 5571 5568 5564 5560 5556 5553 5550 5547 5545 5542 5540 5538 5535 5533
5641 5641 5640 5641 5640 5640 5638 5636 5634 5630 5627 5623 5618 5612 5607 5604 5600 5596 5590 5589 5589 5586 5583 5579 5574 5571 5567 5563 5558 5554 5551 5547 5544 5540 5538 5535 5533 5530 5529 5527 5525 5524 5520
5627 5626 5628 5629 5628 5628 5626 5623 5620 5617 5614 5611 5606 5601 5596 5592 5589 5585 5579 5577 5574 5571 5567 5563 5558 5554 5550 5547 5543 5539 5535 5532 5529 5526 5523 5521 5519 5517 5515 5514 5513 5513 5512
5619 5618 5617 5617 5616 5613 5611 5608 5606 5603 5600 5597 5592 5587 5581 5580 5576 5572 5568 5563 5558 5554 5549 5545 5541 5537 5534 5531 5527 5524 5520 5517 5514 5511 5509 5507 5505 5504 5503 5503 5502 5502 5501
5609 5609 5607 5606 5603 5600 5597 5595 5593 5590 5586 5582 5578 5574 5566 5564 5560 5555 5550 5545 5540 5536 5531 5527 5524 5521 5517 5514 5511 5508 5506 5502 5499 5497 5495 5494 5493 5493 5492 5492 5492 5492 5492
5599 5598 5596 5594 5592 5587 5585 5582 5578 5574 5569 5565 5560 5556 5551 5546 5541 5536 5532 5528 5523 5518 5515 5511 5508 5506 5503 5499 5496 5493 5490 5487 5485 5483 5482 5482 5482 5482 5482 5483 5483 5484 5486
5588 5587 5584 5581 5578 5574 5569 5565 5561 5556 5552 5547 5542 5537 5532 5527 5523 5518 5514 5510 5506 5502 5499 5496 5494 5491 5489 5486 5483 5480 5476 5473 5472 5473 5472 5472 5473 5474 5475 5476 5477 5479 5480
5577 5574 5570 5566 5562 5558 5553 5548 5543 5538 5533 5529 5524 5519 5514 5509 5505 5500 5496 5493 5490 5488 5485 5483 5481 5479 5477 5474 5472 5469 5467 5466 5465 5465 5465 5466 5467 5468 5470 5472 5473 5475 5476
5561 5558 5555 5551 5546 5541 5536 5531 5526 5520 5515 5511 5506 5502 5497 5492 5488 5485 5481 5479 5477 5475 5473 5471 5470 5469 5467 5466 5463 5461 5461 5461 5461 5460 5459 5461 5463 5465 5466 5468 5470 5471 5473